This is the latest recevied weather packets stored in our database for station/object SP1BMW-13. If no packets are shown the sender has not sent any weather packets the latest 1 day(s).
| Time | Temp. | Humidity | Pressure | Rain* | Wind** | Luminosity | Snow |
|---|---|---|---|---|---|---|---|
| 1778029308 | 10° C | 93% | 1007 hPa | 0 mm | 0.89 m/s, 65° | 0 W/m² | - |
| 1778029249 | 10° C | 93% | 1007.2 hPa | 0 mm | 0.45 m/s, 42° | 0 W/m² | - |
| 1778029188 | 10° C | 93% | 1007 hPa | 0 mm | 0.89 m/s, 66° | 0 W/m² | - |
| 1778029128 | 10° C | 93% | 1007 hPa | 0 mm | 0.89 m/s, 44° | 0 W/m² | - |
| 1778029071 | 10° C | 93% | 1007.1 hPa | 0 mm | 0.89 m/s, 52° | 0 W/m² | - |
| 1778029008 | 10° C | 93% | 1007.1 hPa | 0 mm | 0.45 m/s, 325° | 0 W/m² | - |
| 1778028949 | 10° C | 93% | 1007.1 hPa | 0 mm | 0.89 m/s, 25° | 0 W/m² | - |
| 1778028888 | 10° C | 93% | 1007.1 hPa | 0 mm | 1.79 m/s, 43° | 0 W/m² | - |
| 1778028828 | 10° C | 93% | 1007 hPa | 0 mm | 1.34 m/s, 46° | 0 W/m² | - |
| 1778028771 | 10° C | 93% | 1007 hPa | 0 mm | 0 m/s | 0 W/m² | - |
| 1778028709 | 10° C | 93% | 1006.9 hPa | 0 mm | 0 m/s | 0 W/m² | - |
| 1778028648 | 10° C | 93% | 1007 hPa | 0 mm | 0.45 m/s, 27° | 0 W/m² | - |
| 1778028588 | 10° C | 93% | 1007 hPa | 0 mm | 0.45 m/s, 28° | 0 W/m² | - |
| 1778028528 | 10° C | 93% | 1006.9 hPa | 0 mm | 0.89 m/s, 29° | 0 W/m² | - |
| 1778028468 | 10° C | 93% | 1007 hPa | 0 mm | 0 m/s | 0 W/m² | - |
| 1778028408 | 10° C | 93% | 1007 hPa | 0 mm | 0.89 m/s, 8° | 0 W/m² | - |
| 1778028348 | 10° C | 93% | 1007 hPa | 0 mm | 1.34 m/s, 56° | 0 W/m² | - |
| 1778028288 | 10° C | 93% | 1007.2 hPa | 0 mm | 0.45 m/s, 39° | 0 W/m² | - |
| 1778028228 | 10° C | 93% | 1007.1 hPa | 0 mm | 0.45 m/s, 34° | 0 W/m² | - |
| 1778028168 | 10° C | 93% | 1007.3 hPa | 0 mm | 0.45 m/s, 45° | 0 W/m² | - |
| 1778028111 | 10° C | 93% | 1007 hPa | 0 mm | 0 m/s | 0 W/m² | - |
| 1778028048 | 10° C | 93% | 1006.9 hPa | 0 mm | 0.89 m/s, 32° | 0 W/m² | - |
| 1778027988 | 10° C | 93% | 1006.8 hPa | 0 mm | 0.89 m/s, 50° | 0 W/m² | - |
| 1778027928 | 10° C | 93% | 1007.1 hPa | 0 mm | 0.45 m/s, 48° | 0 W/m² | - |
| 1778027868 | 10° C | 93% | 1007.1 hPa | 0 mm | 1.34 m/s, 34° | 0 W/m² | - |
* Rain latest hour (hover to see other rain measurements)
** Current wind speed in m/s (hover to see current wind gust speed)